,,PressureMeas_1m,,PRMeasQMR101_1,,RHStat155_1m_1,,SRMeasQMS101R_1m,,TAStat155_1m_1,,GenWind_1,,GenWind_1,
2019-09-26, 07:00:06,VALID,919.344,VALID,0.0,VALID,99.913,VALID,20.967,VALID,19.545,INVALID,360.0,VALID,0.0,
2019-09-26, 07:01:06,VALID,919.349,VALID,0.0,VALID,99.913,VALID,21.198,VALID,19.529,INVALID,360.0,VALID,0.0,
2019-09-26, 07:02:06,VALID,919.339,VALID,0.0,VALID,99.913,VALID,21.361,VALID,19.535,INVALID,360.0,VALID,0.0,
2019-09-26, 07:03:06,VALID,919.33,VALID,0.0,VALID,99.913,VALID,21.523,VALID,19.55,INVALID,360.0,VALID,0.0,
2019-09-26, 07:04:06,VALID,919.375,VALID,0.0,VALID,99.914,VALID,21.695,VALID,19.555,INVALID,360.0,VALID,0.0,
2019-09-26, 07:05:06,VALID,919.378,VALID,0.0,VALID,99.898,VALID,21.897,VALID,19.564,INVALID,360.0,VALID,0.0,
2019-09-26, 07:06:06,VALID,919.399,VALID,0.0,VALID,99.881,VALID,22.11,VALID,19.583,INVALID,360.0,VALID,0.0,
2019-09-26, 07:07:06,VALID,919.424,VALID,0.0,VALID,99.859,VALID,22.468,VALID,19.606,INVALID,360.0,VALID,0.0,
2019-09-26, 07:08:06,VALID,919.476,VALID,0.0,VALID,99.867,VALID,22.954,VALID,19.607,INVALID,360.0,VALID,0.0,
2019-09-26, 07:09:06,VALID,919.5,VALID,0.0,VALID,99.833,VALID,23.638,VALID,19.633,INVALID,360.0,VALID,0.0,
2019-09-26, 07:10:06,VALID,919.524,VALID,0.0,VALID,99.821,VALID,24.535,VALID,19.637,INVALID,360.0,VALID,0.0,
2019-09-26, 07:11:06,VALID,919.527,VALID,0.0,VALID,99.8,VALID,25.618,VALID,19.63,INVALID,360.0,VALID,0.0,
2019-09-26, 07:12:06,VALID,919.557,VALID,0.0,VALID,99.774,VALID,26.916,VALID,19.615,VALID,64.0,VALID,0.0,
2019-09-26, 07:13:06,VALID,919.576,VALID,0.0,VALID,99.742,VALID,28.397,VALID,19.616,INVALID,360.0,VALID,0.0,
2019-09-26, 07:14:06,VALID,919.58,VALID,0.0,VALID,99.675,VALID,30.108,VALID,19.59,INVALID,360.0,VALID,0.0,
2019-09-26, 07:15:06,VALID,919.589,VALID,0.0,VALID,99.613,VALID,31.912,VALID,19.593,INVALID,360.0,VALID,0.0,
2019-09-26, 07:16:06,VALID,919.605,VALID,0.0,VALID,99.535,VALID,33.641,VALID,19.628,INVALID,360.0,VALID,0.0,
2019-09-26, 07:17:06,VALID,919.62,VALID,0.0,VALID,99.512,VALID,35.301,VALID,19.694,INVALID,360.0,VALID,0.0,
2019-09-26, 07:18:06,VALID,919.631,VALID,0.0,VALID,99.497,VALID,37.014,VALID,19.737,INVALID,360.0,VALID,0.0,
2019-09-26, 07:19:06,VALID,919.636,VALID,0.0,VALID,99.445,VALID,38.959,VALID,19.724,INVALID,360.0,VALID,0.0,
2019-09-26, 07:20:06,VALID,919.656,VALID,0.0,VALID,99.382,VALID,41.259,VALID,19.71,INVALID,360.0,VALID,0.0,
2019-09-26, 07:21:06,VALID,919.636,VALID,0.0,VALID,99.312,VALID,43.717,VALID,19.689,INVALID,360.0,VALID,0.0,
2019-09-26, 07:22:06,VALID,919.647,VALID,0.0,VALID,99.311,VALID,46.349,VALID,19.734,INVALID,360.0,VALID,0.0,
2019-09-26, 07:23:06,VALID,919.685,VALID,0.0,VALID,99.312,VALID,49.05,VALID,19.804,INVALID,360.0,VALID,0.0,
2019-09-26, 07:24:06,VALID,919.702,VALID,0.0,VALID,99.338,VALID,51.73,VALID,19.833,INVALID,360.0,VALID,0.0,
2019-09-26, 07:25:06,VALID,919.71,VALID,0.0,VALID,99.356,VALID,54.089,VALID,19.845,INVALID,360.0,VALID,0.0,
2019-09-26, 07:26:06,VALID,919.704,VALID,0.0,VALID,99.263,VALID,56.222,VALID,19.799,INVALID,360.0,VALID,0.0,
2019-09-26, 07:27:06,VALID,919.703,VALID,0.0,VALID,99.268,VALID,58.645,VALID,19.838,INVALID,360.0,VALID,0.0,
2019-09-26, 07:28:06,VALID,919.707,VALID,0.0,VALID,99.257,VALID,61.205,VALID,19.865,VALID,67.0,VALID,0.0,
2019-09-26, 07:29:06,VALID,919.702,VALID,0.0,VALID,99.244,VALID,64.05,VALID,19.876,INVALID,360.0,VALID,0.0,
2019-09-26, 07:30:06,VALID,919.701,VALID,0.0,VALID,99.209,VALID,67.607,VALID,19.899,INVALID,360.0,VALID,0.0,
2019-09-26, 07:31:06,VALID,919.716,VALID,0.0,VALID,99.147,VALID,72.089,VALID,19.944,INVALID,360.0,VALID,0.0,
2019-09-26, 07:32:06,VALID,919.716,VALID,0.0,VALID,98.972,VALID,77.476,VALID,19.979,INVALID,360.0,VALID,0.0,
2019-09-26, 07:33:06,VALID,919.75,VALID,0.0,VALID,98.636,VALID,82.053,VALID,20.003,INVALID,360.0,VALID,0.0,
2019-09-26, 07:34:06,VALID,919.754,VALID,0.0,VALID,98.509,VALID,85.291,VALID,20.129,INVALID,360.0,VALID,0.0,
2019-09-26, 07:35:06,VALID,919.786,VALID,0.0,VALID,98.444,VALID,85.834,VALID,20.194,INVALID,360.0,VALID,0.0,
2019-09-26, 07:36:06,VALID,919.792,VALID,0.0,VALID,98.079,VALID,85.414,VALID,20.203,INVALID,360.0,VALID,0.0,
2019-09-26, 07:37:06,VALID,919.822,VALID,0.0,VALID,97.672,VALID,85.809,VALID,20.231,INVALID,360.0,VALID,0.0,
2019-09-26, 07:38:06,VALID,919.844,VALID,0.0,VALID,97.622,VALID,87.481,VALID,20.338,INVALID,360.0,VALID,0.0,
2019-09-26, 07:39:06,VALID,919.855,VALID,0.0,VALID,97.776,VALID,90.047,VALID,20.37,INVALID,360.0,VALID,0.0,
2019-09-26, 07:40:06,VALID,919.861,VALID,0.0,VALID,97.691,VALID,92.527,VALID,20.342,INVALID,360.0,VALID,0.0,
2019-09-26, 07:41:06,VALID,919.874,VALID,0.0,VALID,97.511,VALID,95.774,VALID,20.317,INVALID,360.0,VALID,0.0,
2019-09-26, 07:42:06,VALID,919.881,VALID,0.0,VALID,97.681,VALID,100.425,VALID,20.32,INVALID,360.0,VALID,0.0,
2019-09-26, 07:43:06,VALID,919.883,VALID,0.0,VALID,97.745,VALID,105.091,VALID,20.337,INVALID,360.0,VALID,0.0,
2019-09-26, 07:44:06,VALID,919.843,VALID,0.0,VALID,97.787,VALID,108.943,VALID,20.373,INVALID,360.0,VALID,0.0,
2019-09-26, 07:45:06,VALID,919.842,VALID,0.0,VALID,98.032,VALID,113.116,VALID,20.456,INVALID,360.0,VALID,0.0,
2019-09-26, 07:46:06,VALID,919.865,VALID,0.0,VALID,98.107,VALID,117.026,VALID,20.508,INVALID,360.0,VALID,0.0,
2019-09-26, 07:47:06,VALID,919.881,VALID,0.0,VALID,98.081,VALID,120.055,VALID,20.522,INVALID,360.0,VALID,0.0,
2019-09-26, 07:48:06,VALID,919.888,VALID,0.0,VALID,97.339,VALID,121.851,VALID,20.476,INVALID,360.0,VALID,0.0,
2019-09-26, 07:49:06,VALID,919.874,VALID,0.0,VALID,97.294,VALID,122.387,VALID,20.559,INVALID,360.0,VALID,0.0,
2019-09-26, 07:50:06,VALID,919.881,VALID,0.0,VALID,96.957,VALID,121.514,VALID,20.595,INVALID,360.0,VALID,0.0,
2019-09-26, 07:51:06,VALID,919.905,VALID,0.0,VALID,96.077,VALID,120.069,VALID,20.613,INVALID,360.0,VALID,0.0,
2019-09-26, 07:52:06,VALID,919.903,VALID,0.0,VALID,95.791,VALID,119.512,VALID,20.681,INVALID,360.0,VALID,0.0,
2019-09-26, 07:53:06,VALID,919.912,VALID,0.0,VALID,96.128,VALID,120.327,VALID,20.788,INVALID,360.0,VALID,0.0,
2019-09-26, 07:54:06,VALID,919.922,VALID,0.0,VALID,95.879,VALID,123.124,VALID,20.805,INVALID,360.0,VALID,0.0,
2019-09-26, 07:55:06,VALID,919.95,VALID,0.0,VALID,95.597,VALID,127.472,VALID,20.866,INVALID,360.0,VALID,0.0,
2019-09-26, 07:56:06,VALID,919.933,VALID,0.0,VALID,95.804,VALID,132.843,VALID,20.872,INVALID,360.0,VALID,0.0,
2019-09-26, 07:57:06,VALID,919.893,VALID,0.0,VALID,95.699,VALID,139.947,VALID,20.845,INVALID,360.0,VALID,0.0,
2019-09-26, 07:58:06,VALID,919.897,VALID,0.0,VALID,95.629,VALID,148.116,VALID,20.855,INVALID,360.0,VALID,0.0,
2019-09-26, 07:59:06,VALID,919.891,VALID,0.0,VALID,95.34,VALID,160.183,VALID,20.883,INVALID,360.0,VALID,0.0,
2019-09-26, 08:00:06,VALID,919.89,VALID,0.0,VALID,95.96,VALID,173.413,VALID,20.96,INVALID,360.0,VALID,0.0,
2019-09-26, 08:01:06,VALID,919.923,VALID,0.0,VALID,95.801,VALID,164.859,VALID,21.01,INVALID,360.0,VALID,0.0,
2019-09-26, 08:02:06,VALID,919.945,VALID,0.0,VALID,96.071,VALID,149.448,VALID,20.961,INVALID,360.0,VALID,0.0,
2019-09-26, 08:03:06,VALID,919.93,VALID,0.0,VALID,96.299,VALID,141.629,VALID,20.813,INVALID,360.0,VALID,0.0,
2019-09-26, 08:04:06,VALID,919.926,VALID,0.0,VALID,97.037,VALID,153.826,VALID,20.738,INVALID,360.0,VALID,0.0,
2019-09-26, 08:05:06,VALID,919.94,VALID,0.0,VALID,97.601,VALID,148.86,VALID,20.724,INVALID,360.0,VALID,0.0,
2019-09-26, 08:06:06,VALID,919.96,VALID,0.0,VALID,97.715,VALID,149.804,VALID,20.699,INVALID,360.0,VALID,0.0,
2019-09-26, 08:07:06,VALID,919.971,VALID,0.0,VALID,97.822,VALID,152.34,VALID,20.694,INVALID,360.0,VALID,0.0,
2019-09-26, 08:08:06,VALID,920.008,VALID,0.0,VALID,97.618,VALID,148.793,VALID,20.675,INVALID,360.0,VALID,0.0,
2019-09-26, 08:09:06,VALID,920.01,VALID,0.0,VALID,97.594,VALID,147.558,VALID,20.743,INVALID,360.0,VALID,0.0,
2019-09-26, 08:10:06,VALID,920.014,VALID,0.0,VALID,97.229,VALID,148.671,VALID,20.726,INVALID,360.0,VALID,0.0,
2019-09-26, 08:11:06,VALID,920.048,VALID,0.0,VALID,96.908,VALID,155.138,VALID,20.723,INVALID,360.0,VALID,0.0,
2019-09-26, 08:12:06,VALID,920.057,VALID,0.0,VALID,97.074,VALID,159.971,VALID,20.765,INVALID,360.0,VALID,0.0,
2019-09-26, 08:13:06,VALID,920.036,VALID,0.0,VALID,96.963,VALID,161.884,VALID,20.751,INVALID,360.0,VALID,0.0,
2019-09-26, 08:14:06,VALID,920.024,VALID,0.0,VALID,96.246,VALID,177.416,VALID,20.731,INVALID,360.0,VALID,0.0,
2019-09-26, 08:15:06,VALID,920.046,VALID,0.0,VALID,96.175,VALID,189.365,VALID,20.847,INVALID,360.0,VALID,0.0,
2019-09-26, 08:16:06,VALID,920.065,VALID,0.0,VALID,95.869,VALID,219.015,VALID,20.991,INVALID,360.0,VALID,0.0,
2019-09-26, 08:17:06,VALID,920.058,VALID,0.0,VALID,94.33,VALID,158.603,VALID,21.089,INVALID,360.0,VALID,0.0,
2019-09-26, 08:18:06,VALID,920.048,VALID,0.0,VALID,92.888,VALID,150.579,VALID,21.184,INVALID,360.0,VALID,0.0,
2019-09-26, 08:19:06,VALID,920.075,VALID,0.0,VALID,92.745,VALID,151.784,VALID,21.242,INVALID,360.0,VALID,0.0,
2019-09-26, 08:20:06,VALID,920.092,VALID,0.0,VALID,93.099,VALID,152.751,VALID,21.332,INVALID,360.0,VALID,0.0,
2019-09-26, 08:21:06,VALID,920.105,VALID,0.0,VALID,92.982,VALID,151.079,VALID,21.396,INVALID,360.0,VALID,0.192,
2019-09-26, 08:22:06,VALID,920.131,VALID,0.0,VALID,91.097,VALID,148.927,VALID,21.411,VALID,73.0,VALID,1.484,
2019-09-26, 08:23:06,VALID,920.115,VALID,0.0,VALID,90.927,VALID,148.141,VALID,21.446,VALID,66.0,VALID,1.001,
2019-09-26, 08:24:06,VALID,920.14,VALID,0.0,VALID,91.787,VALID,150.435,VALID,21.493,VALID,81.0,VALID,0.537,
2019-09-26, 08:25:06,VALID,920.158,VALID,0.0,VALID,92.445,VALID,157.325,VALID,21.546,VALID,118.0,VALID,0.301,
2019-09-26, 08:26:06,VALID,920.148,VALID,0.0,VALID,91.413,VALID,154.96,VALID,21.592,VALID,94.0,VALID,0.402,
2019-09-26, 08:27:06,VALID,920.174,VALID,0.0,VALID,90.189,VALID,154.103,VALID,21.582,INVALID,360.0,VALID,0.0,
2019-09-26, 08:28:06,VALID,920.16,VALID,0.0,VALID,90.751,VALID,153.781,VALID,21.628,INVALID,360.0,VALID,0.0,
2019-09-26, 08:29:06,VALID,920.188,VALID,0.0,VALID,91.134,VALID,152.925,VALID,21.717,INVALID,360.0,VALID,0.0,
2019-09-26, 08:30:06,VALID,920.186,VALID,0.0,VALID,90.804,VALID,152.744,VALID,21.812,INVALID,360.0,VALID,0.0,
2019-09-26, 08:31:06,VALID,920.184,VALID,0.0,VALID,90.874,VALID,152.63,VALID,21.931,INVALID,360.0,VALID,0.0,
2019-09-26, 08:32:06,VALID,920.201,VALID,0.0,VALID,89.861,VALID,152.179,VALID,21.98,INVALID,360.0,VALID,0.074,
2019-09-26, 08:33:06,VALID,920.223,VALID,0.0,VALID,89.83,VALID,151.695,VALID,21.964,INVALID,360.0,VALID,0.0,
2019-09-26, 08:34:06,VALID,920.206,VALID,0.0,VALID,89.57,VALID,150.27,VALID,21.947,INVALID,360.0,VALID,0.0,
2019-09-26, 08:35:06,VALID,920.193,VALID,0.0,VALID,89.848,VALID,148.099,VALID,21.959,INVALID,360.0,VALID,0.0,
2019-09-26, 08:36:06,VALID,920.181,VALID,0.0,VALID,90.574,VALID,145.386,VALID,22.047,INVALID,360.0,VALID,0.0,
2019-09-26, 08:37:06,VALID,920.179,VALID,0.0,VALID,91.203,VALID,142.073,VALID,22.101,INVALID,360.0,VALID,0.0,
2019-09-26, 08:38:06,VALID,920.195,VALID,0.0,VALID,90.158,VALID,140.647,VALID,21.989,INVALID,360.0,VALID,0.0,
2019-09-26, 08:39:06,VALID,920.192,VALID,0.0,VALID,89.043,VALID,140.046,VALID,21.908,INVALID,360.0,VALID,0.0,
2019-09-26, 08:40:06,VALID,920.206,VALID,0.0,VALID,89.187,VALID,140.53,VALID,21.836,INVALID,360.0,VALID,0.0,
2019-09-26, 08:41:06,VALID,920.21,VALID,0.0,VALID,89.531,VALID,141.918,VALID,21.8,INVALID,360.0,VALID,0.0,
2019-09-26, 08:42:06,VALID,920.209,VALID,0.0,VALID,90.356,VALID,143.494,VALID,21.813,INVALID,360.0,VALID,0.0,
2019-09-26, 08:43:06,VALID,920.22,VALID,0.0,VALID,90.417,VALID,144.737,VALID,21.864,INVALID,360.0,VALID,0.0,
2019-09-26, 08:44:06,VALID,920.231,VALID,0.0,VALID,89.435,VALID,145.768,VALID,21.92,INVALID,360.0,VALID,0.0,
2019-09-26, 08:45:06,VALID,920.236,VALID,0.0,VALID,88.978,VALID,146.629,VALID,21.976,VALID,152.0,VALID,0.0,
2019-09-26, 08:46:06,VALID,920.25,VALID,0.0,VALID,88.767,VALID,146.534,VALID,22.009,INVALID,360.0,VALID,0.0,
2019-09-26, 08:47:06,VALID,920.255,VALID,0.0,VALID,88.419,VALID,146.513,VALID,22.047,INVALID,360.0,VALID,0.0,
2019-09-26, 08:48:06,VALID,920.263,VALID,0.0,VALID,88.139,VALID,146.659,VALID,22.086,INVALID,360.0,VALID,0.0,
2019-09-26, 08:49:06,VALID,920.283,VALID,0.0,VALID,87.717,VALID,146.239,VALID,22.126,INVALID,360.0,VALID,0.0,
2019-09-26, 08:50:06,VALID,920.301,VALID,0.0,VALID,87.965,VALID,145.749,VALID,22.154,INVALID,360.0,VALID,0.0,
2019-09-26, 08:51:06,VALID,920.296,VALID,0.0,VALID,87.57,VALID,145.979,VALID,22.132,INVALID,360.0,VALID,0.0,
2019-09-26, 08:52:06,VALID,920.326,VALID,0.0,VALID,87.777,VALID,147.453,VALID,22.139,INVALID,360.0,VALID,0.0,
2019-09-26, 08:53:06,VALID,920.344,VALID,0.0,VALID,87.826,VALID,148.949,VALID,22.178,INVALID,360.0,VALID,0.0,
2019-09-26, 08:54:06,VALID,920.349,VALID,0.0,VALID,88.194,VALID,150.084,VALID,22.202,INVALID,360.0,VALID,0.0,
2019-09-26, 08:55:06,VALID,920.372,VALID,0.0,VALID,87.747,VALID,151.314,VALID,22.17,INVALID,360.0,VALID,0.0,
2019-09-26, 08:56:06,VALID,920.379,VALID,0.0,VALID,88.496,VALID,153.06,VALID,22.162,INVALID,360.0,VALID,0.0,
2019-09-26, 08:57:06,VALID,920.384,VALID,0.0,VALID,87.896,VALID,155.274,VALID,22.158,INVALID,360.0,VALID,0.0,
2019-09-26, 08:58:06,VALID,920.375,VALID,0.0,VALID,87.458,VALID,157.611,VALID,22.139,INVALID,360.0,VALID,0.0,
2019-09-26, 08:59:06,VALID,920.369,VALID,0.0,VALID,87.897,VALID,159.998,VALID,22.18,INVALID,360.0,VALID,0.0,
2019-09-26, 09:00:06,VALID,920.385,VALID,0.0,VALID,88.069,VALID,162.378,VALID,22.224,INVALID,360.0,VALID,0.0,
2019-09-26, 09:01:06,VALID,920.391,VALID,0.0,VALID,88.248,VALID,164.849,VALID,22.283,INVALID,360.0,VALID,0.0,
2019-09-26, 09:02:06,VALID,920.399,VALID,0.0,VALID,89.761,VALID,167.585,VALID,22.388,INVALID,360.0,VALID,0.0,
2019-09-26, 09:03:06,VALID,920.427,VALID,0.0,VALID,88.423,VALID,170.909,VALID,22.408,INVALID,360.0,VALID,0.0,
2019-09-26, 09:04:06,VALID,920.431,VALID,0.0,VALID,87.774,VALID,174.704,VALID,22.39,INVALID,360.0,VALID,0.0,
2019-09-26, 09:05:06,VALID,920.441,VALID,0.0,VALID,87.429,VALID,178.995,VALID,22.423,INVALID,360.0,VALID,0.0,
2019-09-26, 09:06:06,VALID,920.465,VALID,0.0,VALID,87.107,VALID,183.977,VALID,22.482,INVALID,360.0,VALID,0.0,
2019-09-26, 09:07:06,VALID,920.462,VALID,0.0,VALID,87.622,VALID,189.212,VALID,22.534,INVALID,360.0,VALID,0.0,
2019-09-26, 09:08:06,VALID,920.451,VALID,0.0,VALID,87.139,VALID,193.743,VALID,22.485,INVALID,360.0,VALID,0.0,
2019-09-26, 09:09:06,VALID,920.433,VALID,0.0,VALID,86.52,VALID,197.127,VALID,22.428,INVALID,360.0,VALID,0.0,
2019-09-26, 09:10:06,VALID,920.431,VALID,0.0,VALID,86.869,VALID,199.891,VALID,22.384,INVALID,360.0,VALID,0.33,
2019-09-26, 09:11:06,VALID,920.425,VALID,0.0,VALID,83.845,VALID,202.43,VALID,22.32,VALID,72.0,VALID,0.548,
2019-09-26, 09:12:06,VALID,920.41,VALID,0.0,VALID,84.763,VALID,204.736,VALID,22.436,INVALID,360.0,VALID,0.025,
2019-09-26, 09:13:06,VALID,920.42,VALID,0.0,VALID,84.401,VALID,205.995,VALID,22.491,INVALID,360.0,VALID,0.0,
2019-09-26, 09:14:06,VALID,920.416,VALID,0.0,VALID,85.613,VALID,205.934,VALID,22.466,INVALID,360.0,VALID,0.0,
2019-09-26, 09:15:06,VALID,920.42,VALID,0.0,VALID,86.748,VALID,205.769,VALID,22.457,INVALID,360.0,VALID,0.0,
2019-09-26, 09:16:06,VALID,920.436,VALID,0.0,VALID,85.411,VALID,206.032,VALID,22.421,INVALID,360.0,VALID,0.0,
2019-09-26, 09:17:06,VALID,920.436,VALID,0.0,VALID,86.143,VALID,206.782,VALID,22.425,INVALID,360.0,VALID,0.0,
2019-09-26, 09:18:06,VALID,920.44,VALID,0.0,VALID,87.054,VALID,207.603,VALID,22.478,INVALID,360.0,VALID,0.0,
2019-09-26, 09:19:06,VALID,920.457,VALID,0.0,VALID,85.668,VALID,208.911,VALID,22.513,INVALID,360.0,VALID,0.0,
2019-09-26, 09:20:06,VALID,920.451,VALID,0.0,VALID,86.566,VALID,211.176,VALID,22.501,INVALID,360.0,VALID,0.0,
2019-09-26, 09:21:06,VALID,920.424,VALID,0.0,VALID,85.005,VALID,215.09,VALID,22.482,INVALID,360.0,VALID,0.0,
2019-09-26, 09:22:06,VALID,920.417,VALID,0.0,VALID,85.524,VALID,219.661,VALID,22.566,INVALID,360.0,VALID,0.0,
2019-09-26, 09:23:06,VALID,920.397,VALID,0.0,VALID,84.689,VALID,223.858,VALID,22.611,INVALID,360.0,VALID,0.0,
2019-09-26, 09:24:06,VALID,920.408,VALID,0.0,VALID,85.603,VALID,227.52,VALID,22.639,INVALID,360.0,VALID,0.0,
2019-09-26, 09:25:06,VALID,920.42,VALID,0.0,VALID,84.462,VALID,230.758,VALID,22.647,INVALID,360.0,VALID,0.0,
2019-09-26, 09:26:06,VALID,920.407,VALID,0.0,VALID,85.037,VALID,234.513,VALID,22.652,INVALID,360.0,VALID,0.0,
2019-09-26, 09:27:06,VALID,920.393,VALID,0.0,VALID,84.714,VALID,238.806,VALID,22.672,INVALID,360.0,VALID,0.0,
2019-09-26, 09:28:06,VALID,920.413,VALID,0.0,VALID,84.71,VALID,243.736,VALID,22.66,INVALID,360.0,VALID,0.0,
2019-09-26, 09:29:06,VALID,920.41,VALID,0.0,VALID,85.05,VALID,249.047,VALID,22.719,INVALID,360.0,VALID,0.0,
2019-09-26, 09:30:06,VALID,920.379,VALID,0.0,VALID,83.376,VALID,255.772,VALID,22.771,INVALID,360.0,VALID,0.0,
2019-09-26, 09:31:06,VALID,920.367,VALID,0.0,VALID,84.366,VALID,263.315,VALID,22.848,INVALID,360.0,VALID,0.0,
2019-09-26, 09:32:06,VALID,920.358,VALID,0.0,VALID,84.389,VALID,270.355,VALID,22.858,INVALID,360.0,VALID,0.0,
2019-09-26, 09:33:06,VALID,920.325,VALID,0.0,VALID,84.547,VALID,277.685,VALID,22.895,INVALID,360.0,VALID,0.0,
2019-09-26, 09:34:06,VALID,920.32,VALID,0.0,VALID,84.648,VALID,286.021,VALID,22.898,INVALID,360.0,VALID,0.0,
2019-09-26, 09:35:06,VALID,920.281,VALID,0.0,VALID,81.412,VALID,294.471,VALID,22.988,INVALID,360.0,VALID,0.0,
2019-09-26, 09:36:06,VALID,920.285,VALID,0.0,VALID,82.984,VALID,304.298,VALID,23.112,INVALID,360.0,VALID,0.0,
2019-09-26, 09:37:06,VALID,920.262,VALID,0.0,VALID,81.535,VALID,316.61,VALID,23.035,INVALID,360.0,VALID,0.11,
2019-09-26, 09:38:06,VALID,920.269,VALID,0.0,VALID,81.72,VALID,330.566,VALID,22.974,INVALID,360.0,VALID,0.0,
2019-09-26, 09:39:06,VALID,920.271,VALID,0.0,VALID,81.941,VALID,345.29,VALID,22.98,INVALID,360.0,VALID,0.0,
2019-09-26, 09:40:06,VALID,920.271,VALID,0.0,VALID,82.559,VALID,359.585,VALID,22.991,INVALID,360.0,VALID,0.0,
2019-09-26, 09:41:06,VALID,920.295,VALID,0.0,VALID,82.594,VALID,371.094,VALID,23.101,INVALID,360.0,VALID,0.0,
2019-09-26, 09:42:06,VALID,920.308,VALID,0.0,VALID,80.269,VALID,394.329,VALID,23.18,INVALID,360.0,VALID,0.0,
2019-09-26, 09:43:06,VALID,920.335,VALID,0.0,VALID,80.442,VALID,422.875,VALID,23.17,INVALID,360.0,VALID,0.0,
2019-09-26, 09:44:06,VALID,920.301,VALID,0.0,VALID,81.134,VALID,469.877,VALID,23.214,INVALID,360.0,VALID,0.782,
2019-09-26, 09:45:06,VALID,920.31,VALID,0.0,VALID,79.91,VALID,635.139,VALID,23.333,VALID,38.0,VALID,2.557,
2019-09-26, 09:46:06,VALID,920.292,VALID,0.0,VALID,79.11,VALID,727.185,VALID,23.335,VALID,52.0,VALID,2.507,
2019-09-26, 09:47:06,VALID,920.256,VALID,0.0,VALID,79.959,VALID,740.388,VALID,23.452,VALID,34.0,VALID,2.301,
2019-09-26, 09:48:06,VALID,920.278,VALID,0.0,VALID,78.672,VALID,838.068,VALID,23.643,VALID,34.0,VALID,2.232,
2019-09-26, 09:49:06,VALID,920.276,VALID,0.0,VALID,77.425,VALID,767.882,VALID,23.84,VALID,33.0,VALID,2.941,
2019-09-26, 09:50:06,VALID,920.258,VALID,0.0,VALID,77.545,VALID,601.619,VALID,23.781,VALID,54.0,VALID,2.894,
2019-09-26, 09:51:06,VALID,920.254,VALID,0.0,VALID,78.046,VALID,688.435,VALID,23.788,VALID,49.0,VALID,2.107,
2019-09-26, 09:52:06,VALID,920.246,VALID,0.0,VALID,76.168,VALID,732.065,VALID,23.815,VALID,56.0,VALID,2.593,
2019-09-26, 09:53:06,VALID,920.227,VALID,0.0,VALID,76.127,VALID,800.564,VALID,23.797,VALID,39.0,VALID,2.427,
2019-09-26, 09:54:06,VALID,920.249,VALID,0.0,VALID,75.987,VALID,675.722,VALID,23.837,VALID,45.0,VALID,3.425,
2019-09-26, 09:55:06,VALID,920.265,VALID,0.0,VALID,77.142,VALID,527.866,VALID,23.87,VALID,58.0,VALID,2.272,
2019-09-26, 09:56:06,VALID,920.268,VALID,0.0,VALID,75.293,VALID,482.186,VALID,23.883,VALID,61.0,VALID,2.434,
2019-09-26, 09:57:06,VALID,920.297,VALID,0.0,VALID,75.885,VALID,459.425,VALID,23.785,VALID,76.0,VALID,2.262,
2019-09-26, 09:58:06,VALID,920.285,VALID,0.0,VALID,73.191,VALID,441.0,VALID,23.611,VALID,81.0,VALID,2.684,
2019-09-26, 09:59:06,VALID,920.306,VALID,0.0,VALID,75.833,VALID,434.021,VALID,23.523,VALID,81.0,VALID,2.865,
2019-09-26, 10:00:06,VALID,920.268,VALID,0.0,VALID,74.259,VALID,452.658,VALID,23.486,VALID,88.0,VALID,3.359,
2019-09-26, 10:01:06,VALID,920.278,VALID,0.0,VALID,76.399,VALID,474.308,VALID,23.483,VALID,45.0,VALID,1.958,
2019-09-26, 10:02:06,VALID,920.303,VALID,0.0,VALID,76.856,VALID,602.764,VALID,23.621,VALID,83.0,VALID,1.159,
2019-09-26, 10:03:06,VALID,920.297,VALID,0.0,VALID,74.56,VALID,715.422,VALID,23.829,VALID,103.0,VALID,2.39,
2019-09-26, 10:04:06,VALID,920.278,VALID,0.0,VALID,75.235,VALID,541.727,VALID,24.058,VALID,69.0,VALID,1.6,
2019-09-26, 10:05:06,VALID,920.273,VALID,0.0,VALID,71.899,VALID,454.517,VALID,24.104,VALID,64.0,VALID,2.657,
2019-09-26, 10:06:06,VALID,920.266,VALID,0.0,VALID,73.059,VALID,395.826,VALID,23.913,VALID,55.0,VALID,2.691,
2019-09-26, 10:07:06,VALID,920.277,VALID,0.0,VALID,73.985,VALID,367.57,VALID,23.817,VALID,64.0,VALID,1.71,
2019-09-26, 10:08:06,VALID,920.268,VALID,0.0,VALID,73.68,VALID,354.676,VALID,23.771,VALID,68.0,VALID,1.716,
2019-09-26, 10:09:06,VALID,920.258,VALID,0.0,VALID,73.536,VALID,352.519,VALID,23.647,VALID,84.0,VALID,2.011,
2019-09-26, 10:10:06,VALID,920.218,VALID,0.0,VALID,76.353,VALID,354.995,VALID,23.64,VALID,28.0,VALID,1.121,
2019-09-26, 10:11:06,VALID,920.206,VALID,0.0,VALID,76.681,VALID,363.477,VALID,23.838,VALID,34.0,VALID,1.595,
2019-09-26, 10:12:06,VALID,920.191,VALID,0.0,VALID,75.3,VALID,373.226,VALID,23.864,VALID,84.0,VALID,1.754,
2019-09-26, 10:13:06,VALID,920.169,VALID,0.0,VALID,74.55,VALID,376.191,VALID,23.828,VALID,73.0,VALID,2.061,
2019-09-26, 10:14:06,VALID,920.161,VALID,0.0,VALID,74.104,VALID,374.357,VALID,23.707,VALID,54.0,VALID,1.694,
2019-09-26, 10:15:06,VALID,920.164,VALID,0.0,VALID,75.059,VALID,369.043,VALID,23.719,VALID,102.0,VALID,1.935,
2019-09-26, 10:16:06,VALID,920.14,VALID,0.0,VALID,74.444,VALID,366.207,VALID,23.807,VALID,94.0,VALID,1.405,
2019-09-26, 10:17:06,VALID,920.13,VALID,0.0,VALID,75.502,VALID,372.543,VALID,23.893,VALID,50.0,VALID,1.764,
2019-09-26, 10:18:06,VALID,920.12,VALID,0.0,VALID,74.696,VALID,384.868,VALID,23.838,VALID,79.0,VALID,0.751,
2019-09-26, 10:19:06,VALID,920.087,VALID,0.0,VALID,74.372,VALID,393.284,VALID,23.905,VALID,43.0,VALID,0.89,
2019-09-26, 10:20:06,VALID,920.098,VALID,0.0,VALID,74.381,VALID,398.801,VALID,23.99,VALID,53.0,VALID,0.77,
2019-09-26, 10:21:06,VALID,920.102,VALID,0.0,VALID,74.66,VALID,405.213,VALID,24.109,VALID,74.0,VALID,2.027,
2019-09-26, 10:22:06,VALID,920.101,VALID,0.0,VALID,72.908,VALID,413.459,VALID,24.021,VALID,88.0,VALID,2.447,
2019-09-26, 10:23:06,VALID,920.099,VALID,0.0,VALID,73.436,VALID,428.514,VALID,23.873,VALID,87.0,VALID,1.35,
2019-09-26, 10:24:06,VALID,920.11,VALID,0.0,VALID,73.705,VALID,442.365,VALID,23.874,VALID,64.0,VALID,0.917,
2019-09-26, 10:25:06,VALID,920.1,VALID,0.0,VALID,74.879,VALID,460.643,VALID,23.999,VALID,26.0,VALID,1.123,
2019-09-26, 10:26:06,VALID,920.067,VALID,0.0,VALID,73.457,VALID,475.705,VALID,24.04,VALID,46.0,VALID,1.758,
2019-09-26, 10:27:06,VALID,920.06,VALID,0.0,VALID,74.052,VALID,485.596,VALID,24.057,VALID,44.0,VALID,1.724,
2019-09-26, 10:28:06,VALID,920.061,VALID,0.0,VALID,73.139,VALID,495.561,VALID,24.172,VALID,78.0,VALID,0.569,
2019-09-26, 10:29:06,VALID,920.039,VALID,0.0,VALID,73.049,VALID,509.763,VALID,24.322,VALID,37.0,VALID,1.023,
2019-09-26, 10:30:06,VALID,920.027,VALID,0.0,VALID,71.879,VALID,517.565,VALID,24.366,VALID,87.0,VALID,1.979,
2019-09-26, 10:31:06,VALID,920.037,VALID,0.0,VALID,72.93,VALID,519.25,VALID,24.287,VALID,64.0,VALID,1.376,
2019-09-26, 10:32:06,VALID,920.055,VALID,0.0,VALID,74.542,VALID,506.298,VALID,24.372,VALID,21.0,VALID,1.082,
2019-09-26, 10:33:06,VALID,920.084,VALID,0.0,VALID,73.056,VALID,484.729,VALID,24.457,VALID,29.0,VALID,0.952,
2019-09-26, 10:34:06,VALID,920.073,VALID,0.0,VALID,72.456,VALID,473.657,VALID,24.586,INVALID,360.0,VALID,0.001,
2019-09-26, 10:35:06,VALID,920.054,VALID,0.0,VALID,72.445,VALID,467.969,VALID,24.763,VALID,28.0,VALID,1.338,
2019-09-26, 10:36:06,VALID,920.064,VALID,0.0,VALID,70.736,VALID,466.926,VALID,24.649,VALID,57.0,VALID,1.819,